Location: Unspecified
(0.0000°N, 0.0000°E)
Time: 01:01:46
(UTC+00:00)

N. Korean satellite - Visible Passes

Search period start: 20 April 2019 00:00
Search period end: 30 April 2019 00:00
Orbit: 457 x 508 km, 97.2° (Epoch: 18 April)

Date Brightness Start Highest point End Pass type
(mag) Time Alt. Az. Time Alt. Az. Time Alt. Az.
20 Apr 8.8 05:19:09 10° NE 05:22:25 30° E 05:25:39 10° SSE visible
20 Apr 10.3 18:42:50 10° WSW 18:43:04 10° W 18:43:19 10° W visible
21 Apr 9.9 04:56:02 10° ENE 04:57:34 12° E 04:59:06 10° SE visible
24 Apr 9.2 05:13:11 10° NE 05:16:11 24° E 05:19:09 10° SSE visible
24 Apr 9.8 18:35:09 10° SW 18:36:48 13° W 18:38:29 10° WNW visible
27 Apr 7.7 05:31:14 10° NNE 05:34:46 49° E 05:38:16 10° S visible
28 Apr 9.5 05:07:16 10° NE 05:09:54 19° E 05:12:30 10° SSE visible
28 Apr 9.6 18:28:13 10° SW 18:30:30 16° W 18:32:48 10° WNW visible
